Regional Weather Roundup
Issued by NWS

Home | Current Version | Previous Version | Text Only | Print | Product List | Glossary Off
Versions: 1 2 3 4 5 6 7 8 9 10 11 12 13 14 15 16 17 18 19 20 21 22 23 24 25 26 27 28 29 30 31 32 33 34 35 36 37 38 39 40 41 42 43 44 45 46 47 48 49 50

000
ASUS43 KBIS 190701
RWRND

NORTH DAKOTA REGIONAL WEATHER ROUNDUP
NATIONAL WEATHER SERVICE BISMARCK ND
200 AM CDT SUN APR 19 2015

NOTE: "FAIR" INDICATES FEW OR NO CLOUDS BELOW 12,000 FEET WITH NO
SIGNIFICANT WEATHER AND/OR OBSTRUCTIONS TO VISIBILITY.


NDZ001>003-009>011-017-190800-
NORTHWEST NORTH DAKOTA

CITY           SKY/WX    TMP DP  RH WIND       PRES   REMARKS
WILLISTON      CLEAR     38  26  62 W13       30.03S
MINOT          CLOUDY    44  35  70 W15       29.93S
MINOT AFB      CLOUDY    43  39  86 NW15      29.92S
$$

NDZ018>021-031>035-040>046-190800-
SOUTHWEST NORTH DAKOTA

CITY           SKY/WX    TMP DP  RH WIND       PRES   REMARKS
BISMARCK       LGT RAIN  46  41  82 NW20G28   29.93R
DICKINSON      CLOUDY    42  31  64 NW14      29.99S
GARRISON         N/A     43  37  79 NW14      29.94S
HETTINGER ARPT MOCLDY    42  33  70 NW17      30.01R
$$

NDZ004>008-012>016-024-026-027-054-190800-
NORTHEAST NORTH DAKOTA

CITY           SKY/WX    TMP DP  RH WIND       PRES   REMARKS
GRAND FORKS    CLOUDY    56  34  43 S5        29.80R
GRND FRKS AFB  DRIZZLE   55  41  58 VRB3      29.81R
DEVILS LAKE    CLOUDY    48  43  81 W14       29.83S
$$

NDZ022-023-025-028>030-036>039-047>053-190800-
SOUTHEAST NORTH DAKOTA

CITY           SKY/WX    TMP DP  RH WIND       PRES   REMARKS
FARGO          LGT RAIN  54  49  83 SE5       29.80F
JAMESTOWN      LGT RAIN  48  45  89 NW18      29.82R
$$



USA.gov is the U.S. government's official web portal to all federal, state and local government web resources and services.